^^
Your Local Weather - Clay, NY Station Historical Data
Daily Summary for February 22, 2018 Units:  Metric    English   Both
« Previous Day
Next Day »
Daily Weekly Monthly Yearly Custom
  High: Low: Average:
Temperature: 1.7 °C -0.7 °C 0.6 °C
Dew Point: -0.3 °C -2 °C -1.2 °C
Humidity: 93% 82% 88%
Wind Speed: 3.2km/h 0km/h 0.3km/h
Wind Gust: 6.4km/h - -
Wind- - WSW
Pressure: 1038.1 hPa 1035.1 hPa -
Precipitation: 4.32 mm    
Historical Graphs
 
 
Tabular Data for February 22, 2018
Time Temperature Dew Point Pressure Wind Wind Speed Wind Gust Humidity Rainfall Rate (Hourly) solar
00:02 0.7 °C -2 °C 1035.1 hPa WNW 1.6 km/h 3.2 km/h 82% 0 mm 0 W/m2
00:08 0.8 °C -1.9 °C 1035.1 hPa WNW 1.6 km/h 3.2 km/h 82% 0 mm 0 W/m2
00:14 0.7 °C -2 °C 1035.1 hPa Calm   1.6 km/h 82% 0 mm 0 W/m2
00:20 0.8 °C -1.9 °C 1035.1 hPa Calm   4.8 km/h 82% 0 mm 0 W/m2
00:26 0.8 °C -1.9 °C 1035.4 hPa Calm   4.8 km/h 82% 0 mm 0 W/m2
00:32 0.8 °C -1.9 °C 1035.4 hPa WNW 1.6 km/h 1.6 km/h 82% 0 mm 0 W/m2
00:38 0.8 °C -1.9 °C 1035.4 hPa WNW 1.6 km/h 1.6 km/h 82% 0 mm 0 W/m2
00:44 0.8 °C -1.9 °C 1035.1 hPa Calm   3.2 km/h 82% 0 mm 0 W/m2
00:50 0.8 °C -1.9 °C 1035.4 hPa WNW 1.6 km/h 1.6 km/h 82% 0 mm 0 W/m2
00:56 0.8 °C -1.9 °C 1035.4 hPa WNW 1.6 km/h 3.2 km/h 82% 0 mm 0 W/m2
01:02 0.8 °C -1.9 °C 1035.4 hPa WNW 1.6 km/h 1.6 km/h 82% 0 mm 0 W/m2
01:08 0.8 °C -1.9 °C 1035.8 hPa Calm   3.2 km/h 82% 0 mm 0 W/m2
01:14 0.8 °C -1.9 °C 1035.4 hPa Calm   1.6 km/h 82% 0 mm 0 W/m2
01:20 0.8 °C -1.9 °C 1035.8 hPa Calm     82% 0 mm 0 W/m2
01:26 0.8 °C -1.9 °C 1035.8 hPa Calm   1.6 km/h 82% 0 mm 0 W/m2
01:32 0.8 °C -1.9 °C 1035.8 hPa Calm   3.2 km/h 82% 0 mm 0 W/m2
01:38 0.7 °C -2 °C 1035.8 hPa WNW 1.6 km/h 3.2 km/h 82% 0 mm 0 W/m2
01:44 0.7 °C -1.8 °C 1035.8 hPa Calm   3.2 km/h 83% 0 mm 0 W/m2
01:50 0.8 °C -1.8 °C 1035.8 hPa WNW 1.6 km/h 1.6 km/h 83% 0 mm 0 W/m2
01:56 0.7 °C -1.8 °C 1035.8 hPa Calm   1.6 km/h 83% 0 mm 0 W/m2
02:02 0.7 °C -1.8 °C 1035.8 hPa Calm     83% 0 mm 0 W/m2
02:08 0.7 °C -1.8 °C 1035.8 hPa Calm     83% 0 mm 0 W/m2
02:14 0.7 °C -1.9 °C 1035.8 hPa Calm     83% 0 mm 0 W/m2
02:20 0.7 °C -1.9 °C 1035.8 hPa Calm     83% 0 mm 0 W/m2
02:26 0.7 °C -1.9 °C 1035.8 hPa WNW 1.6 km/h 4.8 km/h 83% 0 mm 0 W/m2
02:32 0.7 °C -1.9 °C 1035.8 hPa Calm     83% 0 mm 0 W/m2
02:38 0.7 °C -1.7 °C 1035.8 hPa Calm     84% 0 mm 0 W/m2
02:44 0.7 °C -1.9 °C 1035.8 hPa Calm     83% 0 mm 0 W/m2
02:50 0.7 °C -1.7 °C 1035.8 hPa Calm     84% 0 mm 0 W/m2
02:56 0.7 °C -1.7 °C 1035.8 hPa Calm     84% 0 mm 0 W/m2
03:02 0.7 °C -1.7 °C 1036.1 hPa Calm     84% 0 mm 0 W/m2
03:08 0.7 °C -1.7 °C 1036.1 hPa Calm     84% 0 mm 0 W/m2
03:14 0.7 °C -1.7 °C 1035.8 hPa Calm     84% 0 mm 0 W/m2
03:20 0.7 °C -1.7 °C 1035.8 hPa Calm     84% 0 mm 0 W/m2
03:26 0.7 °C -1.7 °C 1035.8 hPa Calm     84% 0 mm 0 W/m2
03:32 0.7 °C -1.6 °C 1035.8 hPa Calm     85% 0 mm 0 W/m2
03:38 0.7 °C -1.7 °C 1035.8 hPa Calm     84% 0 mm 0 W/m2
03:44 0.7 °C -1.6 °C 1035.8 hPa Calm     85% 0 mm 0 W/m2
03:50 0.7 °C -1.6 °C 1035.8 hPa Calm     85% 0 mm 0 W/m2
03:56 0.7 °C -1.6 °C 1035.8 hPa Calm   1.6 km/h 85% 0 mm 0 W/m2
04:02 0.6 °C -1.6 °C 1035.8 hPa Calm     85% 0 mm 0 W/m2
04:08 0.6 °C -1.6 °C 1035.4 hPa Calm     85% 0 mm 0 W/m2
04:14 0.6 °C -1.6 °C 1035.8 hPa Calm     85% 0 mm 0 W/m2
04:20 0.6 °C -1.6 °C 1035.8 hPa Calm     85% 0 mm 0 W/m2
04:26 0.6 °C -1.6 °C 1035.8 hPa Calm     85% 0 mm 0 W/m2
04:32 0.6 °C -1.6 °C 1035.8 hPa Calm     85% 0 mm 0 W/m2
04:38 0.6 °C -1.6 °C 1035.8 hPa Calm     85% 0 mm 0 W/m2
04:44 0.6 °C -1.7 °C 1035.8 hPa Calm     85% 0 mm 0 W/m2
04:50 0.6 °C -1.7 °C 1035.8 hPa Calm     85% 0 mm 0 W/m2
04:56 0.6 °C -1.7 °C 1035.8 hPa Calm   1.6 km/h 85% 0 mm 0 W/m2
05:02 0.6 °C -1.7 °C 1035.8 hPa Calm     85% 0 mm 0 W/m2
05:08 0.6 °C -1.6 °C 1035.8 hPa Calm     85% 0 mm 0 W/m2
05:14 0.6 °C -1.7 °C 1035.8 hPa Calm   1.6 km/h 85% 0 mm 0 W/m2
05:20 0.6 °C -1.7 °C 1036.1 hPa Calm     85% 0 mm 0 W/m2
05:26 0.6 °C -1.6 °C 1036.1 hPa Calm     85% 0 mm 0 W/m2
05:32 0.6 °C -1.4 °C 1036.5 hPa Calm     86% 0 mm 0 W/m2
05:38 0.6 °C -1.4 °C 1036.1 hPa Calm     86% 0 mm 0 W/m2
05:44 0.6 °C -1.4 °C 1036.1 hPa Calm     86% 0 mm 0 W/m2
05:50 0.6 °C -1.6 °C 1036.1 hPa Calm     85% 0 mm 0 W/m2
05:56 0.6 °C -1.6 °C 1035.8 hPa Calm     85% 0 mm 0 W/m2
06:02 0.6 °C -1.6 °C 1035.8 hPa Calm     85% 0 mm 0 W/m2
06:08 0.6 °C -1.4 °C 1035.8 hPa Calm     86% 0 mm 0 W/m2
06:14 0.7 °C -1.4 °C 1035.8 hPa Calm     86% 0 mm 0 W/m2
06:20 0.6 °C -1.4 °C 1035.8 hPa Calm     86% 0 mm 0 W/m2
06:26 0.6 °C -1.4 °C 1035.8 hPa Calm     86% 0 mm 0 W/m2
06:32 0.6 °C -1.4 °C 1035.8 hPa Calm     86% 0 mm 0 W/m2
06:38 0.6 °C -1.4 °C 1035.8 hPa Calm     86% 0 mm 0 W/m2
06:44 0.6 °C -1.4 °C 1035.8 hPa Calm     86% 0 mm 0 W/m2
06:50 0.7 °C -1.4 °C 1035.8 hPa Calm     86% 0 mm 0 W/m2
06:56 0.7 °C -1.4 °C 1035.8 hPa Calm     86% 0 mm 0 W/m2
07:02 0.6 °C -1.4 °C 1036.1 hPa Calm     86% 0 mm 0 W/m2
07:08 0.6 °C -1.5 °C 1035.8 hPa Calm     86% 0 mm 9 W/m2
07:14 0.6 °C -1.5 °C 1036.5 hPa Calm     86% 0 mm 5 W/m2
07:20 0.6 °C -1.3 °C 1036.5 hPa Calm     87% 0 mm 14 W/m2
07:26 0.6 °C -1.4 °C 1036.5 hPa Calm     86% 0 mm 18 W/m2
07:32 0.6 °C -1.3 °C 1036.5 hPa Calm   1.6 km/h 87% 0 mm 7 W/m2
07:38 0.6 °C -1.3 °C 1036.5 hPa Calm   1.6 km/h 87% 0 mm 11 W/m2
07:44 0.6 °C -1.3 °C 1036.8 hPa Calm     87% 0 mm 14 W/m2
07:50 0.6 °C -1.3 °C 1036.8 hPa Calm     87% 0 mm 18 W/m2
07:56 0.6 °C -1.3 °C 1036.8 hPa Calm     87% 0 mm 25 W/m2
08:02 0.6 °C -1.3 °C 1036.5 hPa Calm     87% 0 mm 16 W/m2
08:08 0.6 °C -1.3 °C 1036.5 hPa Calm     87% 0 mm 16 W/m2
08:14 0.6 °C -1.3 °C 1036.8 hPa Calm     87% 0 mm 18 W/m2
08:20 0.6 °C -1.3 °C 1036.8 hPa Calm     87% 0 mm 19 W/m2
08:26 0.7 °C -1.2 °C 1036.8 hPa Calm     87% 0 mm 21 W/m2
08:32 0.7 °C -1.2 °C 1036.8 hPa Calm   4.8 km/h 87% 0 mm 26 W/m2
08:38 0.7 °C -1.2 °C 1036.8 hPa WNW 1.6 km/h 4.8 km/h 87% 0 mm 26 W/m2
08:44 0.7 °C -1.2 °C 1036.8 hPa Calm     87% 0 mm 30 W/m2
08:50 0.8 °C -1.2 °C 1036.8 hPa Calm   1.6 km/h 87% 0 mm 30 W/m2
08:56 0.8 °C -1.2 °C 1037.1 hPa Calm   1.6 km/h 87% 0 mm 30 W/m2
09:02 0.8 °C -1.1 °C 1037.5 hPa Calm     87% 0 mm 33 W/m2
09:08 0.9 °C -1.1 °C 1037.8 hPa Calm   1.6 km/h 87% 0 mm 39 W/m2
09:14 0.9 °C -1.1 °C 1037.8 hPa WNW 1.6 km/h 1.6 km/h 87% 0 mm 35 W/m2
09:20 0.9 °C -1 °C 1037.8 hPa WNW 1.6 km/h 4.8 km/h 87% 0 mm 46 W/m2
09:26 0.9 °C -1.1 °C 1038.1 hPa WNW 1.6 km/h 4.8 km/h 87% 0 mm 47 W/m2
09:32 0.9 °C -1 °C 1038.1 hPa Calm   1.6 km/h 87% 0 mm 39 W/m2
09:38 0.9 °C -1 °C 1038.1 hPa Calm   1.6 km/h 87% 0 mm 40 W/m2
09:44 1 °C -0.9 °C 1037.8 hPa Calm     87% 0 mm 54 W/m2
09:50 1.1 °C -0.9 °C 1037.5 hPa Calm     87% 0 mm 62 W/m2
09:56 1.1 °C -0.8 °C 1037.5 hPa WNW 1.6 km/h 3.2 km/h 87% 0 mm 70 W/m2
10:02 1.3 °C -0.8 °C 1037.1 hPa South 1.6 km/h 4.8 km/h 86% 0 mm 69 W/m2
10:08 1.3 °C -0.8 °C 1037.1 hPa SSE 3.2 km/h 4.8 km/h 86% 0 mm 70 W/m2
10:14 1.3 °C -0.8 °C 1037.1 hPa SSE 1.6 km/h 3.2 km/h 86% 0 mm 70 W/m2
10:20 1.3 °C -0.8 °C 1037.1 hPa Calm     86% 0 mm 72 W/m2
10:26 1.4 °C -0.7 °C 1037.1 hPa Calm   1.6 km/h 86% 0 mm 79 W/m2
10:32 1.4 °C -0.7 °C 1037.5 hPa Calm     86% 0 mm 60 W/m2
10:38 1.6 °C -0.6 °C 1037.1 hPa Calm     86% 0 mm 72 W/m2
10:44 1.6 °C -0.7 °C 1037.1 hPa Calm     85% 0 mm 70 W/m2
10:50 1.6 °C -0.7 °C 1037.1 hPa Calm     85% 0 mm 60 W/m2
10:56 1.6 °C -0.7 °C 1037.1 hPa Calm     85% 0 mm 70 W/m2
11:02 1.6 °C -0.7 °C 1037.1 hPa Calm     85% 0 mm 76 W/m2
11:08 1.7 °C -0.6 °C 1037.1 hPa SSE 1.6 km/h 3.2 km/h 85% 0 mm 72 W/m2
11:14 1.7 °C -0.6 °C 1037.1 hPa SSE 1.6 km/h 4.8 km/h 85% 0 mm 58 W/m2
11:20 1.7 °C -0.6 °C 1037.1 hPa SSE 1.6 km/h 1.6 km/h 85% 0 mm 53 W/m2
11:26 1.6 °C -0.7 °C 1037.5 hPa SSE 1.6 km/h 3.2 km/h 85% 0 mm 58 W/m2
11:32 1.4 °C -0.7 °C 1037.5 hPa SSE 1.6 km/h 1.6 km/h 86% 0 mm 51 W/m2
11:38 1.3 °C -0.8 °C 1037.5 hPa Calm   1.6 km/h 86% 0 mm 53 W/m2
11:44 1.1 °C -0.8 °C 1037.5 hPa Calm     87% 0 mm 40 W/m2
11:50 0.9 °C -1 °C 1037.5 hPa Calm     87% 0 mm 37 W/m2
11:56 0.8 °C -1.1 °C 1037.5 hPa Calm   3.2 km/h 87% 0 mm 40 W/m2
12:02 0.7 °C -1.1 °C 1037.5 hPa Calm   1.6 km/h 88% 0 mm 35 W/m2
12:08 0.6 °C -1.2 °C 1037.5 hPa Calm   1.6 km/h 88% 0 mm 35 W/m2
12:14 0.5 °C -1.3 °C 1037.5 hPa Calm     88% 0 mm 39 W/m2
12:20 0.4 °C -1.3 °C 1037.5 hPa Calm     88% 0 mm 39 W/m2
12:26 0.4 °C -1.2 °C 1037.1 hPa Calm     89% 0 mm 39 W/m2
12:32 0.4 °C -1.2 °C 1037.1 hPa Calm     89% 0 mm 42 W/m2
12:38 0.4 °C -1.2 °C 1037.1 hPa Calm     89% 0 mm 47 W/m2
12:44 0.4 °C -1 °C 1037.1 hPa Calm     90% 0 mm 47 W/m2
12:50 0.4 °C -1 °C 1037.1 hPa Calm     90% 0 mm 44 W/m2
12:56 0.4 °C -1 °C 1037.1 hPa Calm     90% 0 mm 44 W/m2
13:02 0.4 °C -1.1 °C 1037.1 hPa Calm     90% 0 mm 44 W/m2
13:08 0.4 °C -1.1 °C 1037.1 hPa Calm     90% 0 mm 47 W/m2
13:14 0.4 °C -1 °C 1037.1 hPa Calm     90% 0 mm 47 W/m2
13:20 0.4 °C -1.1 °C 1037.1 hPa Calm     90% 0 mm 47 W/m2
13:26 0.4 °C -1 °C 1037.5 hPa Calm     90% 0 mm 54 W/m2
13:32 0.4 °C -1 °C 1037.5 hPa Calm     90% 0 mm 56 W/m2
13:38 0.4 °C -1 °C 1037.1 hPa Calm     90% 0 mm 56 W/m2
13:44 0.6 °C -0.7 °C 1037.5 hPa Calm     91% 0 mm 69 W/m2
13:50 0.6 °C -0.7 °C 1037.5 hPa Calm     91% 1.27 mm 72 W/m2
13:56 0.5 °C -0.8 °C 1037.1 hPa Calm     91% 1.27 mm 74 W/m2
14:02 0.6 °C -0.7 °C 1037.5 hPa Calm     91% 1.52 mm 90 W/m2
14:08 0.6 °C -0.7 °C 1037.5 hPa Calm     91% 1.27 mm 86 W/m2
14:14 0.7 °C -0.6 °C 1037.5 hPa Calm     91% 0 mm 102 W/m2
14:20 0.9 °C -0.4 °C 1037.8 hPa Calm     91% 0 mm 123 W/m2
14:26 0.9 °C -0.3 °C 1037.8 hPa Calm     91% 1.27 mm 121 W/m2
14:32 0.9 °C -0.4 °C 1037.8 hPa Calm     91% 1.27 mm 100 W/m2
14:38 0.8 °C -0.4 °C 1037.8 hPa Calm   1.6 km/h 91% 1.52 mm 100 W/m2
14:44 0.8 °C -0.5 °C 1037.8 hPa SSE 1.6 km/h 6.4 km/h 91% 2.29 mm 86 W/m2
14:50 0.7 °C -0.6 °C 1037.8 hPa WSW 1.6 km/h 1.6 km/h 91% 2.03 mm 91 W/m2
14:56 0.7 °C -0.6 °C 1037.8 hPa Calm   1.6 km/h 91% 1.02 mm 84 W/m2
15:02 0.7 °C -0.6 °C 1037.8 hPa Calm     91% 1.02 mm 74 W/m2
15:08 0.8 °C -0.5 °C 1037.5 hPa Calm     91% 1.02 mm 109 W/m2
15:14 0.7 °C -0.6 °C 1037.5 hPa Calm     91% 1.27 mm 102 W/m2
15:20 0.8 °C -0.5 °C 1037.1 hPa Calm     91% 1.27 mm 97 W/m2
15:26 0.8 °C -0.5 °C 1037.1 hPa Calm   3.2 km/h 91% 1.02 mm 120 W/m2
15:32 0.8 °C -0.5 °C 1037.1 hPa WSW 1.6 km/h 1.6 km/h 91% 1.02 mm 79 W/m2
15:38 0.7 °C -0.6 °C 1037.1 hPa WSW 1.6 km/h 1.6 km/h 91% 1.02 mm 60 W/m2
15:44 0.8 °C -0.4 °C 1037.1 hPa Calm     91% 1.02 mm 67 W/m2
15:50 0.8 °C -0.4 °C 1037.1 hPa Calm     91% 1.02 mm 72 W/m2
15:58 0.9 °C -0.4 °C 1037.1 hPa Calm   1.6 km/h 91% 0 mm 63 W/m2
16:06 0.8 °C -0.4 °C 1036.8 hPa Calm   3.2 km/h 91% 0 mm 58 W/m2
16:12 0.8 °C -0.4 °C 1036.5 hPa WSW 1.6 km/h 1.6 km/h 91% 0 mm 54 W/m2
16:18 0.9 °C -0.4 °C 1036.5 hPa WSW 1.6 km/h 3.2 km/h 91% 0 mm 76 W/m2
16:24 0.9 °C -0.4 °C 1036.5 hPa WSW 1.6 km/h 1.6 km/h 91% 0 mm 72 W/m2
16:30 0.9 °C -0.3 °C 1036.5 hPa WSW 1.6 km/h 1.6 km/h 91% 0 mm 84 W/m2
16:36 0.9 °C -0.3 °C 1036.5 hPa WSW 1.6 km/h 1.6 km/h 91% 0 mm 69 W/m2
16:42 1 °C -0.3 °C 1036.1 hPa WSW 1.6 km/h 1.6 km/h 91% 0 mm 58 W/m2
16:48 0.9 °C -0.3 °C 1036.5 hPa Calm   1.6 km/h 91% 0 mm 40 W/m2
16:54 0.9 °C -0.3 °C 1036.1 hPa Calm     91% 0 mm 56 W/m2
17:00 0.9 °C -0.3 °C 1036.1 hPa Calm     91% 0 mm 33 W/m2
17:06 0.9 °C -0.3 °C 1036.5 hPa Calm   1.6 km/h 91% 0 mm 18 W/m2
17:12 0.8 °C -0.4 °C 1036.5 hPa Calm     91% 0 mm 12 W/m2
17:18 0.8 °C -0.4 °C 1036.5 hPa Calm   1.6 km/h 91% 0 mm 11 W/m2
17:24 0.8 °C -0.4 °C 1036.5 hPa Calm   1.6 km/h 91% 0 mm 9 W/m2
17:30 0.8 °C -0.4 °C 1036.5 hPa Calm     91% 0 mm 7 W/m2
17:36 0.8 °C -0.4 °C 1036.5 hPa Calm   4.8 km/h 91% 0 mm 5 W/m2
17:42 0.8 °C -0.5 °C 1036.8 hPa NNW 1.6 km/h 1.6 km/h 91% 0 mm 0 W/m2
17:48 0.8 °C -0.4 °C 1037.1 hPa NNW 1.6 km/h 3.2 km/h 91% 0 mm 0 W/m2
17:54 0.8 °C -0.4 °C 1037.1 hPa Calm   1.6 km/h 91% 0 mm 0 W/m2
18:00 0.8 °C -0.5 °C 1037.5 hPa Calm     91% 0 mm 0 W/m2
18:06 0.8 °C -0.5 °C 1037.1 hPa Calm   1.6 km/h 91% 0 mm 0 W/m2
18:12 0.7 °C -0.6 °C 1037.1 hPa NNW 1.6 km/h 1.6 km/h 91% 0 mm 0 W/m2
18:18 0.7 °C -0.6 °C 1037.1 hPa Calm   1.6 km/h 91% 0 mm 0 W/m2
18:24 0.7 °C -0.6 °C 1037.1 hPa Calm     91% 0 mm 0 W/m2
18:30 0.7 °C -0.6 °C 1037.1 hPa Calm     91% 0 mm 0 W/m2
18:36 0.7 °C -0.6 °C 1037.1 hPa Calm     91% 0 mm 0 W/m2
18:42 0.7 °C -0.6 °C 1037.1 hPa Calm     91% 0 mm 0 W/m2
18:48 0.7 °C -0.6 °C 1037.5 hPa Calm     91% 0 mm 0 W/m2
18:54 0.7 °C -0.6 °C 1037.8 hPa Calm     91% 0 mm 0 W/m2
19:00 0.7 °C -0.6 °C 1037.8 hPa Calm     91% 0 mm 0 W/m2
19:06 0.6 °C -0.7 °C 1037.8 hPa Calm     91% 0 mm 0 W/m2
19:12 0.6 °C -0.7 °C 1038.1 hPa Calm     91% 0 mm 0 W/m2
19:18 0.6 °C -0.7 °C 1037.8 hPa Calm     91% 0 mm 0 W/m2
19:24 0.6 °C -0.6 °C 1037.8 hPa Calm     92% 0 mm 0 W/m2
19:30 0.6 °C -0.6 °C 1037.8 hPa Calm     92% 0 mm 0 W/m2
19:36 0.5 °C -0.7 °C 1037.8 hPa Calm     92% 0 mm 0 W/m2
19:42 0.4 °C -0.9 °C 1037.5 hPa Calm     91% 0 mm 0 W/m2
19:48 0.3 °C -1 °C 1037.1 hPa Calm     91% 0 mm 0 W/m2
19:54 0 °C -1.3 °C 1037.1 hPa Calm   1.6 km/h 91% 0 mm 0 W/m2
20:00 -0.1 °C -1.3 °C 1036.8 hPa Calm     92% 0 mm 0 W/m2
20:06 -0.2 °C -1.5 °C 1037.1 hPa Calm     91% 0 mm 0 W/m2
20:12 -0.3 °C -1.5 °C 1037.8 hPa Calm     92% 0 mm 0 W/m2
20:18 -0.4 °C -1.6 °C 1037.8 hPa Calm     92% 0 mm 0 W/m2
20:24 -0.6 °C -1.8 °C 1037.8 hPa Calm     91% 0 mm 0 W/m2
20:30 -0.7 °C -1.8 °C 1037.8 hPa Calm     92% 0 mm 0 W/m2
20:36 -0.7 °C -1.8 °C 1037.8 hPa Calm     92% 0 mm 0 W/m2
20:42 -0.7 °C -1.8 °C 1037.8 hPa Calm     92% 0 mm 0 W/m2
20:48 -0.7 °C -1.8 °C 1037.8 hPa Calm     92% 0 mm 0 W/m2
20:54 -0.7 °C -1.8 °C 1037.8 hPa Calm     92% 0 mm 0 W/m2
21:00 -0.6 °C -1.7 °C 1037.8 hPa Calm     92% 0 mm 0 W/m2
21:06 -0.6 °C -1.7 °C 1037.8 hPa Calm     92% 0 mm 0 W/m2
21:12 -0.6 °C -1.7 °C 1037.8 hPa Calm     92% 0 mm 0 W/m2
21:18 -0.4 °C -1.6 °C 1037.8 hPa Calm     92% 0 mm 0 W/m2
21:24 -0.3 °C -1.5 °C 1037.8 hPa Calm     92% 0 mm 0 W/m2
21:30 -0.3 °C -1.4 °C 1037.8 hPa Calm     92% 0 mm 0 W/m2
21:36 -0.2 °C -1.3 °C 1037.8 hPa Calm     92% 0 mm 0 W/m2
21:42 -0.1 °C -1.3 °C 1037.8 hPa Calm     92% 0 mm 0 W/m2
21:48 -0.1 °C -1.3 °C 1037.8 hPa Calm     92% 0 mm 0 W/m2
21:54 -0.1 °C -1.3 °C 1037.8 hPa Calm     92% 0 mm 0 W/m2
22:00 -0.1 °C -1.3 °C 1037.8 hPa Calm     92% 0 mm 0 W/m2
22:06 -0.1 °C -1.3 °C 1037.8 hPa Calm     92% 0 mm 0 W/m2
22:12 -0.1 °C -1.2 °C 1037.8 hPa Calm     92% 0 mm 0 W/m2
22:18 0.1 °C -1.1 °C 1037.8 hPa Calm     92% 0 mm 0 W/m2
22:24 0.1 °C -1.1 °C 1037.8 hPa Calm     92% 0 mm 0 W/m2
22:30 0.1 °C -1.1 °C 1037.8 hPa Calm     92% 0 mm 0 W/m2
22:36 0.1 °C -1.1 °C 1037.8 hPa Calm     92% 0 mm 0 W/m2
22:42 0 °C -1.2 °C 1037.8 hPa Calm     92% 0 mm 0 W/m2
22:48 0 °C -1.2 °C 1037.8 hPa Calm     92% 0 mm 0 W/m2
22:54 0 °C -1 °C 1037.8 hPa Calm     93% 0 mm 0 W/m2
23:00 0.1 °C -0.9 °C 1037.8 hPa Calm     93% 0 mm 0 W/m2
23:06 0 °C -1 °C 1037.5 hPa Calm     93% 0 mm 0 W/m2
23:12 -0.1 °C -1.1 °C 1037.1 hPa Calm     93% 0 mm 0 W/m2
23:18 -0.1 °C -1.1 °C 1037.1 hPa Calm     93% 0 mm 0 W/m2
23:24 -0.1 °C -1.1 °C 1037.1 hPa Calm     93% 0 mm 0 W/m2
23:30 -0.1 °C -1.1 °C 1037.1 hPa Calm     93% 0 mm 0 W/m2
23:36 -0.1 °C -1.1 °C 1037.1 hPa Calm     93% 0 mm 0 W/m2
23:42 -0.1 °C -1.1 °C 1037.1 hPa Calm     93% 0 mm 0 W/m2
23:48 0 °C -1 °C 1037.1 hPa Calm     93% 0 mm 0 W/m2
23:54 0 °C -1 °C 1037.5 hPa Calm     93% 0 mm 0 W/m2
Country Meadow, Clay, NY, USA
Compliments of Weather Underground - 2 mb